User: anonymous   Login
Location: Unspecified
(0.0000°N, 0.0000°E)
Time: 12:59:41
(UTC+00:00)
Language:

HO-68 - Orbit

View from above orbital plane
View from above orbital plane
View from above satellite
View from above satellite

Ground track
Ground track

The orbit data is extracted from the following two-line orbital elements,

1 36122U 09072B   21016.21735576 -.00000023  00000-0  51000-4 0  9994
2 36122 100.1129   3.3129 0008198  93.8286 266.3777 13.16358748532868
Epoch (UTC): 16 January 2021 05:12:59
Eccentricity: 0.0008198
inclination: 100.1129°
perigee height: 1192 km
apogee height: 1205 km
right ascension of ascending node: 3.3129°
argument of perigee: 93.8286°
revolutions per day: 13.16358748
mean anomaly at epoch: 266.3777°
orbit number at epoch: 53286

The dashed part of the orbit path shows where the satellite is in the earth's shadow,  

DLR